sat.trackr.live / text

‹ back to catalog

STARLINK-4655

NORAD 53613 · 2022-104AB

PAYLOAD ACTIVE UNKNOWN

§ Identity

Operator
Country
US
Launch date
2022-08-28
Launch site
AFETR
Launch vehicle
Mass (kg)
RCS (m²)

Purposes: comms

External: N2YO · Heavens-Above · Gunter

§ Orbital elements

Epoch: 2026-05-25T00:05:01.135968Z

Period
95.44 min
Inclination
53.2145°
Eccentricity
0.0001071
Mean motion
15.08839854 rev/d
Perigee alt
539.0 km
Apogee alt
540.5 km
Semi-major
6,917.9 km
B*
7.0493e-5
RAAN
251.6865°
Arg perigee
93.3018°
Mean anomaly
266.8096°
Rev number
20,715

§ Raw data

STARLINK-46551 53613U 22104AB  26145.00348537  .00000834  00000+0  70493-4 0  99962 53613  53.2145 251.6865 0001071  93.3018 266.8096 15.08839854207159

JSON: /api/v1/satellites/53613 · /tle

For live sub-satellite position, see the globe view (requires WebGL).

§ Visibility from observer

Set your observer location to see the next 7 days of passes ≥ 10°. The values pass through the URL so the page stays shareable.

No JS? Fill the form by hand. The geolocation button needs JavaScript.